This is the latest recevied weather packets stored in our database for station/object JO1YDG-13. If no packets are shown the sender has not sent any weather packets the latest 10 day(s).
| Time | Temp. | Humidity | Pressure | Rain* | Wind** | Luminosity | Snow |
|---|---|---|---|---|---|---|---|
| 1777846276 | 17.22° C | 95% | 970.1 hPa | 1.02 mm | - | - | - |
| 1777845976 | 17.22° C | 95% | 970.1 hPa | 1.02 mm | - | - | - |
| 1777845676 | 17.22° C | 95% | 970 hPa | 1.02 mm | - | - | - |
| 1777845375 | 17.22° C | 97% | 970 hPa | 1.02 mm | - | - | - |
| 1777845076 | 16.67° C | 96% | 970 hPa | 1.02 mm | - | - | - |
| 1777844776 | 16.67° C | 97% | 969.9 hPa | 0.76 mm | - | - | - |
| 1777844476 | 16.67° C | 97% | 969.9 hPa | 0.51 mm | - | - | - |
| 1777844176 | 16.67° C | 97% | 970 hPa | 0.25 mm | - | - | - |
| 1777843875 | 16.67° C | 97% | 970 hPa | 0 mm | - | - | - |
| 1777843575 | 16.67° C | 98% | 969.8 hPa | 0 mm | - | - | - |
| 1777843277 | 16.67° C | 98% | 969.8 hPa | 0 mm | - | - | - |
| 1777842977 | 16.67° C | 99% | 969.8 hPa | 0.25 mm | - | - | - |
| 1777842677 | 16.11° C | 99% | 969.7 hPa | 0.25 mm | - | - | - |
| 1777842377 | 16.11° C | 99% | 969.7 hPa | 0.25 mm | - | - | - |
| 1777842076 | 16.11° C | 99% | 969.7 hPa | 0.25 mm | - | - | - |
| 1777841776 | 16.11° C | 99% | 969.7 hPa | 0.25 mm | - | - | - |
| 1777841422 | 16.11° C | 99% | 969.5 hPa | 0.25 mm | - | - | - |
| 1777841122 | 15.56° C | 99% | 969.5 hPa | 0.25 mm | - | - | - |
| 1777840822 | 15.56° C | 99% | 969.5 hPa | 0.25 mm | - | - | - |
| 1777840521 | 15.56° C | 99% | 969.7 hPa | 0.51 mm | - | - | - |
| 1777840221 | 15.56° C | 99% | 969.7 hPa | 0.51 mm | - | - | - |
| 1777839921 | 15.56° C | 99% | 969.8 hPa | 0.51 mm | - | - | - |
| 1777839621 | 15.56° C | 99% | 969.8 hPa | 0.51 mm | - | - | - |
| 1777839321 | 15.56° C | 99% | 969.7 hPa | 0.25 mm | - | - | - |
| 1777839020 | 15.56° C | 99% | 969.6 hPa | 0.76 mm | - | - | - |
* Rain latest hour (hover to see other rain measurements)
** Current wind speed in m/s (hover to see current wind gust speed)